Snowfall_Accumulation
0.0 0.0 0.0 0.0 0.0 0.0 0.0 0.0 0.0 nan nan nan nan nan nan nan nan nan nan nan nan nan nan nan nan nan nan
0.0 0.0 0.0 0.0 0.0 0.0 0.0 0.0 0.0 nan nan nan nan nan nan nan nan nan nan nan nan nan nan nan nan nan nan
0.0 0.0 0.0 0.0 0.0 0.0 0.0 0.0 0.0 nan nan nan nan nan nan nan nan nan nan nan nan nan nan nan nan nan nan
0.0 0.0 0.0 0.0 0.0 0.0 0.0 0.0 0.0 0.0 nan nan nan nan nan nan nan nan nan nan nan nan nan nan nan nan nan
0.0 0.0 0.0 0.0 0.0 0.0 0.0 0.0 0.0 0.0 0.0 0.0 0.0 0.0 0.0 nan nan nan nan nan nan nan nan nan nan nan nan
0.0 0.0 0.0 0.0 0.0 0.0 0.2 0.4 0.7 0.0 0.0 0.0 0.0 0.0 0.0 0.0 nan nan nan nan nan nan nan nan nan nan nan
0.0 0.0 0.0 0.0 0.0 0.1 0.1 0.2 0.1 0.2 0.2 0.5 0.1 0.0 0.0 0.0 nan nan nan nan nan nan nan nan nan nan nan
0.0 0.0 0.0 0.0 0.0 0.0 0.0 0.2 0.1 0.1 0.1 1.1 0.4 0.6 0.1 0.0 nan nan nan nan nan nan nan nan nan nan nan
nan nan nan nan nan 0.0 0.4 0.7 1.0 0.6 0.1 0.5 0.3 0.1 0.5 0.2 0.0 nan nan nan nan nan nan nan nan nan 0.0
0.0 0.0 nan nan nan 0.0 0.2 1.6 2.6 3.3 0.8 3.0 0.5 0.6 1.9 0.2 0.1 0.0 0.0 nan nan nan nan nan nan 0.0 0.0
0.1 0.0 0.1 0.1 0.2 0.1 0.1 0.4 1.8 2.1 0.2 1.3 1.9 1.4 2.2 1.4 0.1 0.1 0.0 0.0 0.0 0.0 nan nan nan 0.0 0.1
0.5 0.5 0.6 0.5 0.5 0.3 0.0 0.1 0.1 0.2 0.1 0.0 10.1 2.3 4.5 4.6 1.6 0.4 0.2 0.0 0.1 0.2 0.1 nan nan nan nan
1.2 1.7 1.4 1.1 0.5 1.2 0.5 0.3 0.2 0.2 0.1 0.0 1.5 0.7 3.0 5.5 4.5 1.2 1.0 0.1 0.2 0.2 0.2 0.2 0.1 0.2 0.5
1.8 1.6 1.5 2.4 2.3 1.3 3.1 1.9 4.1 2.6 0.8 0.3 0.3 0.7 7.1 2.6 4.0 3.7 0.9 8.4 0.3 0.2 0.4 0.3 0.2 0.1 0.3
2.5 2.7 1.9 2.3 2.7 2.3 3.3 3.7 6.9 3.9 3.6 2.5 1.1 1.1 2.0 3.3 7.7 1.4 1.5 1.4 0.7 1.0 1.3 0.8 0.2 0.2 0.2
3.4 4.2 5.4 5.4 5.6 5.8 5.1 6.3 9.0 5.2 5.4 3.7 4.3 6.1 3.6 2.8 2.2 2.3 1.4 1.5 0.9 0.7 1.0 3.5 1.0 0.2 0.0
6.6 8.5 9.4 9.1 8.9 8.0 8.1 7.6 9.1 7.2 7.0 6.3 10.3 11.9 15.3 10.7 2.1 nan 4.9 2.3 1.8 1.4 0.7 1.5 2.8 0.7 0.4
Water_Equivalent
0.00 0.00 0.00 0.00 0.00 0.00 0.00 0.00 0.00 nan nan nan nan nan nan nan nan nan nan nan nan nan nan nan nan nan nan
0.00 0.00 0.00 0.00 0.00 0.00 0.00 0.00 0.00 nan nan nan nan nan nan nan nan nan nan nan nan nan nan nan nan nan nan
0.00 0.00 0.00 0.00 0.00 0.00 0.00 0.00 0.00 nan nan nan nan nan nan nan nan nan nan nan nan nan nan nan nan nan nan
0.00 0.00 0.00 0.00 0.00 0.00 0.00 0.00 0.00 0.00 nan nan nan nan nan nan nan nan nan nan nan nan nan nan nan nan nan
0.00 0.00 0.00 0.01 0.00 0.00 0.02 0.01 0.01 0.00 0.00 0.00 0.00 0.00 0.00 nan nan nan nan nan nan nan nan nan nan nan nan
0.01 0.00 0.01 0.00 0.00 0.00 0.06 0.11 0.19 0.00 0.00 0.00 0.00 0.00 0.00 0.00 nan nan nan nan nan nan nan nan nan nan nan
0.00 0.00 0.00 0.00 0.00 0.03 0.03 0.06 0.03 0.05 0.06 0.11 0.03 0.00 0.00 0.00 nan nan nan nan nan nan nan nan nan nan nan
0.00 0.00 0.00 0.00 0.00 0.00 0.01 0.06 0.03 0.02 0.02 0.27 0.09 0.13 0.04 0.00 nan nan nan nan nan nan nan nan nan nan nan
nan nan nan nan nan 0.00 0.13 0.22 0.19 0.15 0.03 0.12 0.05 0.02 0.10 0.06 0.01 nan nan nan nan nan nan nan nan nan 0.00
0.00 0.00 nan nan nan 0.00 0.08 0.43 0.51 0.64 0.19 0.55 0.12 0.14 0.41 0.06 0.03 0.00 0.00 nan nan nan nan nan nan 0.00 0.00
0.03 0.01 0.02 0.04 0.07 0.03 0.02 0.13 0.51 0.53 0.03 0.33 0.52 0.33 0.49 0.31 0.03 0.01 0.00 0.00 0.00 0.00 nan nan nan 0.00 0.02
0.19 0.21 0.19 0.17 0.16 0.10 0.00 0.03 0.03 0.06 0.02 0.01 2.43 0.49 0.92 0.83 0.31 0.06 0.04 0.00 0.02 0.06 0.02 nan nan nan nan
0.27 0.37 0.34 0.25 0.12 0.25 0.10 0.05 0.04 0.04 0.03 0.01 0.45 0.15 0.68 0.98 0.71 0.25 0.20 0.04 0.06 0.07 0.08 0.07 0.05 0.06 0.13
0.35 0.27 0.28 0.61 0.50 0.31 0.66 0.42 0.78 0.58 0.16 0.07 0.07 0.17 1.30 0.51 0.76 0.68 0.21 1.39 0.10 0.09 0.12 0.10 0.05 0.02 0.07
0.45 0.48 0.36 0.48 0.54 0.55 0.72 0.77 1.15 0.71 0.66 0.52 0.19 0.23 0.46 0.64 1.26 0.29 0.28 0.30 0.19 0.26 0.32 0.22 0.08 0.06 0.04
0.72 0.78 0.95 0.97 1.00 1.09 1.03 1.13 1.50 0.96 0.97 0.70 0.89 1.17 0.88 0.69 0.50 0.41 0.32 0.33 0.25 0.20 0.25 0.68 0.28 0.06 0.01
1.45 1.68 1.77 1.69 1.63 1.31 1.34 1.31 1.44 1.31 1.29 1.18 1.99 2.20 2.22 1.46 0.50 nan 1.00 0.55 0.43 0.33 0.19 0.33 0.60 0.25 0.09
SL_Ratio
nan nan nan nan nan nan nan nan nan nan nan nan nan nan nan nan nan nan nan nan nan nan nan nan nan nan nan
nan nan nan nan nan nan nan nan nan nan nan nan nan nan nan nan nan nan nan nan nan nan nan nan nan nan nan
nan nan nan nan nan nan nan nan nan nan nan nan nan nan nan nan nan nan nan nan nan nan nan nan nan nan nan
nan nan nan nan nan nan nan nan nan nan nan nan nan nan nan nan nan nan nan nan nan nan nan nan nan nan nan
nan nan 3.3 3.3 3.1 2.5 3.1 2.5 2.5 nan nan nan nan nan nan nan nan nan nan nan nan nan nan nan nan nan nan
2.5 2.5 3.3 nan nan 2.5 3.1 3.7 3.8 3.3 nan nan nan nan nan nan nan nan nan nan nan nan nan nan nan nan nan
nan nan 2.5 nan 3.0 3.4 3.4 2.9 3.3 4.1 4.3 4.2 2.7 2.5 nan nan nan nan nan nan nan nan nan nan nan nan nan
nan nan nan nan nan nan 3.2 3.8 2.5 3.4 2.7 4.2 4.4 4.6 3.3 nan nan nan nan nan nan nan nan nan nan nan nan
nan nan nan nan nan nan 2.7 3.1 5.0 4.2 3.0 4.3 5.5 4.4 5.6 4.5 4.2 nan nan nan nan nan nan nan nan nan nan
nan nan nan nan nan nan 2.6 3.7 5.0 5.2 4.3 5.5 4.5 4.5 4.7 2.9 3.6 nan nan nan nan nan nan nan nan nan nan
2.5 2.5 2.6 2.9 2.8 2.7 2.8 3.0 3.6 4.0 4.9 3.9 3.6 4.1 4.6 4.4 3.2 4.4 nan 5.0 nan nan nan nan nan nan 4.3
2.5 2.5 3.0 2.7 3.2 3.1 3.9 2.5 2.5 3.5 3.8 3.9 4.1 4.6 4.9 5.5 5.1 6.2 6.6 2.5 2.6 3.8 2.5 nan nan nan nan
4.7 4.5 4.3 4.3 4.5 4.8 5.2 5.0 4.8 4.9 4.8 2.6 3.2 4.4 4.4 5.6 6.4 4.9 5.2 2.7 2.8 2.6 2.8 2.8 2.7 2.8 4.0
5.2 6.1 5.5 3.8 4.6 4.0 4.7 4.5 5.2 4.5 4.7 4.1 4.0 4.3 5.5 5.2 5.3 5.5 4.2 6.0 2.9 2.8 3.2 3.1 3.2 3.5 3.6
5.4 5.6 5.3 4.7 5.0 4.2 4.5 4.7 6.0 5.4 5.5 4.8 5.6 4.8 4.3 5.2 6.1 4.9 5.3 4.8 3.5 3.6 4.2 3.6 2.8 2.9 3.5
4.8 5.4 5.7 5.6 5.6 5.3 4.9 5.6 6.0 5.4 5.5 5.3 4.9 5.2 4.1 4.0 4.5 5.6 4.6 4.6 3.8 3.8 4.2 5.2 3.6 2.5 4.1
4.6 5.1 5.3 5.4 5.5 6.1 6.0 5.8 6.3 5.5 5.4 5.3 5.2 5.4 6.9 7.3 4.1 nan 5.0 4.1 4.1 4.3 4.0 4.7 4.6 3.0 4.4